Home   Weather   Cadiz   Past weeks

Flag for Spain Past Weather in Cadiz, Cádiz, Spain — Yesterday and Last 2 Weeks

Now
63 °F

Passing clouds.


Feels Like: 63 °F
Forecast: 56 / 64 °F
Wind: 13 mph from West

Location: Rota Airport

Current Time: Apr 26, 2017 at 11:40:03 pm

Latest Report: Apr 26, 2017 at 11:00 pm


Visibility: N/A

Pressure: 29.86 "Hg

Humidity: 77%

Dew Point: 55 °F

Location of CadizLocation

Past Weather in Cadiz — Graph

°F

Cadiz Temperature Yesterday

Maximum temperature yesterday: 68 °F (at 1:00 pm)
Minimum temperature yesterday: 61 °F (at 12:00 am)
Average temperature yesterday: 64 °F

High & Low Weather Summary for the Past Weeks

 TemperatureHumidityPressure
High86 °F (Apr 18, 3:00 pm)100% (Apr 14, 2:00 am)30.15 "Hg (Apr 14, 2:00 am)
Low52 °F (Apr 12, 4:00 am)34% (Apr 12, 1:00 pm)29.77 "Hg (Apr 18, 5:00 pm)
Average64 °F70%29.99 "Hg
* Reported Apr 11 10:00 pm — Apr 26 10:00 pm, Cadiz, Weather by CustomWeather, © 2017

Note: Actual official high and low records may vary slightly from our data, if they occured in-between our weather recording intervals... More about our weather records

Advertising

Cadiz Weather History for the Previous 24 Hours

Scroll right to see more
 ConditionsComfort  
Time TempWeatherWind HumidityBarometerVisibility
10:00 pm
Wed, Apr 26
63 °FPassing clouds.12 mph77%29.86 "HgN/A
9:00 pm63 °FPassing clouds.14 mph73%29.83 "HgN/A
8:00 pm64 °FPassing clouds.15 mph68%29.83 "HgN/A
7:00 pm64 °FPassing clouds.16 mph68%29.83 "HgN/A
6:00 pm64 °FPassing clouds.13 mph68%29.83 "HgN/A
5:00 pm64 °FPassing clouds.12 mph64%29.86 "HgN/A
4:00 pm64 °FPassing clouds.13 mph68%29.86 "HgN/A
3:00 pm66 °FPassing clouds.13 mph64%29.86 "HgN/A
2:00 pm64 °FPassing clouds.10 mph64%29.86 "HgN/A
1:00 pm64 °FPassing clouds.12 mph64%29.86 "HgN/A
12:00 pm64 °FPassing clouds.9 mph64%29.86 "HgN/A
11:00 am63 °FPassing clouds.9 mph68%29.86 "HgN/A
10:00 am63 °FPassing clouds.8 mph73%29.86 "HgN/A
9:00 am59 °FPassing clouds.6 mph82%29.83 "HgN/A
8:00 am57 °FSunny.3 mph82%29.83 "Hg10 mi
7:00 am55 °FPassing clouds.3 mph82%29.83 "HgN/A
6:00 am57 °FPassing clouds.3 mph88%29.83 "HgN/A
5:00 am59 °FPassing clouds.No wind82%29.83 "HgN/A
4:00 am61 °FPassing clouds.1 mph83%29.83 "HgN/A
3:00 am63 °FPassing clouds.5 mph83%29.86 "HgN/A
2:00 am64 °FPassing clouds.8 mph88%29.86 "HgN/A
1:00 am63 °FPassing clouds.9 mph88%29.86 "HgN/A
12:00 am63 °FPassing clouds.10 mph83%29.89 "HgN/A
11:00 pm
Tue, Apr 25
63 °FPassing clouds.10 mph88%29.89 "HgN/A
Weather by CustomWeather, © 2017

See weather overviewHow to use our weather pages